Location: Zagreb
(45.8000°N, 16.0000°E)
Time: 00:55:29
(UTC+01:00)

Transit 2A Rocket - Pass Details

Date: 11 October 2020
Orbit: 586 x 916 km, 66.7° (Epoch: 28 October)

Event Time Altitude Azimuth Distance (km) Brightness Sun altitude
Rises 18:05:25 0° 294° (WNW) 3,543 9.5 1.1°
Reaches altitude 10° 18:10:38 10° 331° (NNW) 2,558 8.0 0.2°
Maximum altitude 18:11:53 11° 344° (NNW) 2,498 7.8 0.0°
Drops below altitude 10° 18:13:08 10° 356° (N) 2,527 7.6 -0.2°
Sets 18:18:08 0° 34° (NE) 3,381 7.9 -1.1°
